This is the latest recevied weather packets stored in our database for station/object N8WJW. If no packets are shown the sender has not sent any weather packets the latest 10 day(s).
| Time | Temp. | Humidity | Pressure | Rain* | Wind** | Luminosity | Snow |
|---|---|---|---|---|---|---|---|
| 1777561508 | 7.22° C | 84% | 1015.1 hPa | 0 mm | - | 192 W/m² | - |
| 1777561203 | 7.22° C | 83% | 1014.8 hPa | 0 mm | - | 145 W/m² | - |
| 1777560897 | 7.78° C | 86% | 1015 hPa | 0 mm | - | 258 W/m² | - |
| 1777560590 | 7.78° C | 86% | 1014.9 hPa | 0 mm | - | 239 W/m² | - |
| 1777560288 | 7.22° C | 86% | 1014.8 hPa | 0 mm | - | 210 W/m² | - |
| 1777559984 | 6.67° C | 86% | 1014.9 hPa | 0 mm | - | 156 W/m² | - |
| 1777559679 | 6.67° C | 86% | 1014.6 hPa | 0 mm | - | 195 W/m² | - |
| 1777559377 | 6.67° C | 85% | 1014.6 hPa | 0 mm | - | 143 W/m² | - |
| 1777559073 | 6.67° C | 86% | 1014.6 hPa | 0 mm | - | 177 W/m² | - |
| 1777558768 | 6.67° C | 88% | 1014.4 hPa | 0 mm | - | 195 W/m² | - |
| 1777558464 | 6.67° C | 90% | 1014.4 hPa | 0 mm | - | 177 W/m² | - |
| 1777558161 | 6.11° C | 90% | 1014.2 hPa | 0 mm | - | 145 W/m² | - |
| 1777557857 | 6.11° C | 91% | 1014.1 hPa | 0 mm | - | 124 W/m² | - |
| 1777557555 | 6.11° C | 91% | 1014.2 hPa | 0 mm | - | 123 W/m² | - |
| 1777557250 | 6.67° C | 91% | 1013.9 hPa | 0 mm | - | 133 W/m² | - |
| 1777556946 | 6.67° C | 92% | 1014 hPa | 0 mm | - | 157 W/m² | - |
| 1777556642 | 6.11° C | 93% | 1013.9 hPa | 0 mm | - | 175 W/m² | - |
| 1777556336 | 5.56° C | 94% | 1014 hPa | 0 mm | - | 86 W/m² | - |
| 1777556033 | 6.11° C | 95% | 1013.6 hPa | 0 mm | - | 93 W/m² | - |
| 1777555728 | 5.56° C | 95% | 1014 hPa | 0 mm | - | 116 W/m² | - |
| 1777555424 | 5.56° C | 96% | 1013.7 hPa | 0 mm | - | 112 W/m² | - |
| 1777555121 | 5.56° C | 97% | 1013.6 hPa | 0 mm | - | 87 W/m² | - |
| 1777554819 | 6.11° C | 97% | 1013.7 hPa | 0 mm | - | 86 W/m² | - |
| 1777554515 | 5.56° C | 98% | 1013.6 hPa | 0 mm | - | 79 W/m² | - |
| 1777554212 | 5.56° C | 99% | 1013.3 hPa | 0 mm | - | 100 W/m² | - |
* Rain latest hour (hover to see other rain measurements)
** Current wind speed in m/s (hover to see current wind gust speed)